Time,TemperatureF,DewpointF,PressureIn,WindDirection,WindDirectionDegrees,WindSpeedMPH,WindSpeedGustMPH,Humidity,HourlyPrecipIn,Conditions,Clouds,dailyrainin,SoftwareType,DateUTC
2013-03-25 00:00:00,33.5,28.5,29.55,SE,135,4.0,8.7,82,0.00,,,0.00,WUHU216HW,2013-03-25 04:00:00,
2013-03-25 00:05:00,33.3,28.4,29.56,ESE,113,7.2,9.4,82,0.00,,,0.00,WUHU216HW,2013-03-25 04:05:00,
2013-03-25 00:10:00,33.1,28.4,29.56,SE,135,5.4,9.4,83,0.00,,,0.00,WUHU216HW,2013-03-25 04:10:00,
2013-03-25 00:15:00,33.1,28.4,29.56,SSE,158,6.0,8.1,83,0.00,,,0.00,WUHU216HW,2013-03-25 04:15:00,
2013-03-25 00:21:00,32.9,28.6,29.56,SE,135,3.4,8.1,84,0.00,,,0.00,WUHU216HW,2013-03-25 04:21:00,
2013-03-25 00:26:00,32.8,28.4,29.56,ESE,113,4.0,6.9,84,0.00,,,0.00,WUHU216HW,2013-03-25 04:26:00,
2013-03-25 00:31:00,32.8,28.7,29.56,ESE,113,2.5,5.4,85,0.00,,,0.00,WUHU216HW,2013-03-25 04:31:00,
2013-03-25 00:35:00,32.8,29.0,29.56,SE,135,4.5,5.4,86,0.00,,,0.00,WUHU216HW,2013-03-25 04:35:00,
2013-03-25 00:40:00,32.8,28.7,29.55,ESE,113,3.6,5.4,85,0.00,,,0.00,WUHU216HW,2013-03-25 04:40:00,
2013-03-25 00:45:00,32.6,28.9,29.55,ENE,68,2.7,5.6,86,0.00,,,0.00,WUHU216HW,2013-03-25 04:45:00,
2013-03-25 00:50:00,32.6,28.9,29.55,ESE,113,2.7,5.6,86,0.00,,,0.00,WUHU216HW,2013-03-25 04:50:00,
2013-03-25 00:55:00,32.4,28.7,29.55,SE,135,2.2,5.1,86,0.00,,,0.00,WUHU216HW,2013-03-25 04:55:00,
2013-03-25 01:00:00,32.4,28.7,29.55,ESE,113,2.0,4.7,86,0.00,,,0.00,WUHU216HW,2013-03-25 05:00:00,
2013-03-25 01:05:00,32.4,29.0,29.55,East,90,3.6,4.0,87,0.00,,,0.00,WUHU216HW,2013-03-25 05:05:00,
2013-03-25 01:10:00,32.4,29.0,29.55,SE,135,1.3,4.0,87,0.00,,,0.00,WUHU216HW,2013-03-25 05:10:00,
2013-03-25 01:15:00,32.4,28.7,29.55,SE,135,2.2,3.4,86,0.00,,,0.00,WUHU216HW,2013-03-25 05:15:00,
2013-03-25 01:20:00,32.4,28.7,29.55,East,90,1.8,3.4,86,0.00,,,0.00,WUHU216HW,2013-03-25 05:20:00,
2013-03-25 01:25:00,32.2,28.8,29.55,ESE,113,4.5,5.6,87,0.00,,,0.00,WUHU216HW,2013-03-25 05:25:00,
2013-03-25 01:30:00,32.2,28.8,29.55,ESE,113,3.8,5.6,87,0.00,,,0.00,WUHU216HW,2013-03-25 05:30:00,
2013-03-25 01:35:00,32.2,28.8,29.55,ESE,113,0.9,4.5,87,0.00,,,0.00,WUHU216HW,2013-03-25 05:35:00,
2013-03-25 01:40:00,32.2,28.8,29.55,ESE,113,3.1,3.8,87,0.00,,,0.00,WUHU216HW,2013-03-25 05:40:00,
2013-03-25 01:45:00,32.0,28.6,29.55,ESE,113,4.0,4.0,87,0.00,,,0.00,WUHU216HW,2013-03-25 05:45:00,
2013-03-25 01:50:00,32.0,29.0,29.55,ESE,113,4.3,4.5,88,0.00,,,0.00,WUHU216HW,2013-03-25 05:50:00,
2013-03-25 01:55:00,32.0,29.0,29.55,SE,135,1.1,4.5,88,0.00,,,0.00,WUHU216HW,2013-03-25 05:55:00,
2013-03-25 02:00:00,32.0,29.0,29.55,ESE,113,2.0,3.4,88,0.00,,,0.00,WUHU216HW,2013-03-25 06:00:00,
2013-03-25 02:05:00,31.9,29.1,29.54,East,90,3.4,3.4,89,0.00,,,0.00,WUHU216HW,2013-03-25 06:05:00,
2013-03-25 02:10:00,31.9,29.1,29.55,ESE,113,2.2,3.4,89,0.00,,,0.00,WUHU216HW,2013-03-25 06:10:00,
2013-03-25 02:15:00,31.9,29.1,29.55,ESE,113,1.3,2.5,89,0.00,,,0.00,WUHU216HW,2013-03-25 06:15:00,
2013-03-25 02:20:00,31.7,28.9,29.54,SE,135,1.1,2.9,89,0.00,,,0.00,WUHU216HW,2013-03-25 06:20:00,
2013-03-25 02:25:00,31.9,29.1,29.54,NE,45,3.6,3.6,89,0.00,,,0.00,WUHU216HW,2013-03-25 06:25:00,
2013-03-25 02:30:00,31.7,28.9,29.54,SE,135,2.7,3.6,89,0.00,,,0.00,WUHU216HW,2013-03-25 06:30:00,
2013-03-25 02:35:00,31.7,28.9,29.54,SE,135,0.7,3.1,89,0.00,,,0.00,WUHU216HW,2013-03-25 06:35:00,
2013-03-25 02:40:00,31.7,28.9,29.54,SW,225,2.0,4.5,89,0.00,,,0.00,WUHU216HW,2013-03-25 06:40:00,
2013-03-25 02:45:00,31.7,28.9,29.54,ESE,113,1.8,4.5,89,0.00,,,0.00,WUHU216HW,2013-03-25 06:45:00,
2013-03-25 02:50:00,31.7,28.9,29.53,SE,135,2.7,4.3,89,0.00,,,0.00,WUHU216HW,2013-03-25 06:50:00,
2013-03-25 02:55:00,31.7,28.9,29.53,ESE,113,3.4,4.0,89,0.00,,,0.00,WUHU216HW,2013-03-25 06:55:00,
2013-03-25 03:00:00,31.7,28.9,29.53,ESE,113,3.8,3.8,89,0.00,,,0.00,WUHU216HW,2013-03-25 07:00:00,
2013-03-25 03:05:00,31.7,28.9,29.53,ESE,113,1.6,3.8,89,0.00,,,0.00,WUHU216HW,2013-03-25 07:05:00,
2013-03-25 03:10:00,31.7,28.9,29.52,SE,135,0.9,3.1,89,0.00,,,0.00,WUHU216HW,2013-03-25 07:10:00,
2013-03-25 03:15:00,31.5,28.7,29.52,ESE,113,1.1,3.6,89,0.00,,,0.00,WUHU216HW,2013-03-25 07:15:00,
2013-03-25 03:20:00,31.5,28.7,29.52,SE,135,2.9,3.6,89,0.00,,,0.00,WUHU216HW,2013-03-25 07:20:00,
2013-03-25 03:25:00,31.5,28.7,29.52,ESE,113,2.5,3.1,89,0.00,,,0.00,WUHU216HW,2013-03-25 07:25:00,
2013-03-25 03:30:00,31.5,28.7,29.52,SE,135,4.0,4.0,89,0.00,,,0.00,WUHU216HW,2013-03-25 07:30:00,
2013-03-25 03:35:00,31.5,29.0,29.51,ESE,113,1.8,4.0,90,0.00,,,0.00,WUHU216HW,2013-03-25 07:35:00,
2013-03-25 03:40:00,31.5,29.0,29.51,ESE,113,4.0,6.0,90,0.00,,,0.00,WUHU216HW,2013-03-25 07:40:00,
2013-03-25 03:45:00,31.3,28.5,29.51,SE,135,2.9,6.0,89,0.00,,,0.00,WUHU216HW,2013-03-25 07:45:00,
2013-03-25 03:50:00,31.3,28.8,29.50,ESE,113,3.1,6.0,90,0.00,,,0.00,WUHU216HW,2013-03-25 07:50:00,
2013-03-25 03:55:00,31.3,28.8,29.50,East,90,3.6,6.0,90,0.00,,,0.00,WUHU216HW,2013-03-25 07:55:00,
2013-03-25 04:00:00,31.3,28.8,29.50,ESE,113,2.7,4.0,90,0.00,,,0.00,WUHU216HW,2013-03-25 08:00:00,
2013-03-25 04:05:00,31.3,28.8,29.50,East,90,4.7,4.7,90,0.00,,,0.00,WUHU216HW,2013-03-25 08:05:00,
2013-03-25 04:10:00,31.3,28.8,29.50,ESE,113,3.1,5.4,90,0.00,,,0.00,WUHU216HW,2013-03-25 08:10:00,
2013-03-25 04:15:00,31.3,28.8,29.50,ESE,113,2.2,5.4,90,0.00,,,0.00,WUHU216HW,2013-03-25 08:15:00,
2013-03-25 04:20:00,31.3,28.8,29.50,ESE,113,2.5,4.0,90,0.00,,,0.00,WUHU216HW,2013-03-25 08:20:00,
2013-03-25 04:25:00,31.3,28.8,29.50,SE,135,1.8,4.0,90,0.00,,,0.00,WUHU216HW,2013-03-25 08:25:00,
2013-03-25 04:30:00,31.3,28.8,29.49,ESE,113,2.9,4.0,90,0.00,,,0.00,WUHU216HW,2013-03-25 08:30:00,
2013-03-25 04:35:00,31.3,29.1,29.49,ESE,113,2.7,4.3,91,0.00,,,0.00,WUHU216HW,2013-03-25 08:35:00,
2013-03-25 04:40:00,31.3,29.1,29.49,East,90,3.1,4.3,91,0.00,,,0.00,WUHU216HW,2013-03-25 08:40:00,
2013-03-25 04:45:00,31.3,29.1,29.49,SE,135,1.3,4.3,91,0.00,,,0.00,WUHU216HW,2013-03-25 08:45:00,
2013-03-25 04:50:00,31.3,28.8,29.48,ESE,113,1.1,3.8,90,0.00,,,0.00,WUHU216HW,2013-03-25 08:50:00,
2013-03-25 04:55:00,31.3,28.8,29.48,ESE,113,2.0,4.0,90,0.00,,,0.00,WUHU216HW,2013-03-25 08:55:00,
2013-03-25 05:00:00,31.3,29.1,29.48,SE,135,3.1,6.9,91,0.00,,,0.00,WUHU216HW,2013-03-25 09:00:00,
2013-03-25 05:05:00,31.3,29.1,29.48,East,90,3.4,6.9,91,0.00,,,0.00,WUHU216HW,2013-03-25 09:05:00,
2013-03-25 05:10:00,31.3,29.1,29.48,SE,135,1.8,3.6,91,0.00,,,0.00,WUHU216HW,2013-03-25 09:10:00,
2013-03-25 05:15:00,31.3,29.1,29.48,SE,135,0.2,3.8,91,0.00,,,0.00,WUHU216HW,2013-03-25 09:15:00,
2013-03-25 05:20:00,31.3,29.1,29.48,SE,135,5.1,5.1,91,0.00,,,0.00,WUHU216HW,2013-03-25 09:20:00,
2013-03-25 05:25:00,31.3,29.1,29.48,SE,135,4.0,5.1,91,0.00,,,0.00,WUHU216HW,2013-03-25 09:25:00,
2013-03-25 05:30:00,31.3,29.1,29.47,ESE,113,2.5,4.0,91,0.00,,,0.00,WUHU216HW,2013-03-25 09:30:00,
2013-03-25 05:35:00,31.3,29.1,29.48,SE,135,1.8,2.7,91,0.00,,,0.00,WUHU216HW,2013-03-25 09:35:00,
2013-03-25 05:40:00,31.3,29.1,29.47,SE,135,2.2,2.9,91,0.00,,,0.00,WUHU216HW,2013-03-25 09:40:00,
2013-03-25 05:45:00,31.3,29.1,29.48,SE,135,3.4,3.4,91,0.00,,,0.00,WUHU216HW,2013-03-25 09:45:00,
2013-03-25 05:50:00,31.3,29.1,29.47,SE,135,2.0,3.6,91,0.00,,,0.00,WUHU216HW,2013-03-25 09:50:00,
2013-03-25 05:55:00,31.3,29.1,29.48,SE,135,1.1,3.6,91,0.00,,,0.00,WUHU216HW,2013-03-25 09:55:00,
2013-03-25 06:00:00,31.3,29.1,29.48,ENE,68,1.1,2.9,91,0.00,,,0.00,WUHU216HW,2013-03-25 10:00:00,
2013-03-25 06:05:00,31.3,29.1,29.48,ESE,113,0.4,1.6,91,0.00,,,0.00,WUHU216HW,2013-03-25 10:05:00,
2013-03-25 06:10:00,31.3,29.1,29.48,ESE,113,1.1,1.6,91,0.00,,,0.00,WUHU216HW,2013-03-25 10:10:00,
2013-03-25 06:15:00,31.3,29.1,29.48,SE,135,1.1,1.6,91,0.00,,,0.00,WUHU216HW,2013-03-25 10:15:00,
2013-03-25 06:20:00,31.3,29.1,29.48,South,180,1.1,1.6,91,0.00,,,0.00,WUHU216HW,2013-03-25 10:20:00,
2013-03-25 06:25:00,31.3,28.8,29.48,South,180,0.2,1.8,90,0.00,,,0.00,WUHU216HW,2013-03-25 10:25:00,
2013-03-25 06:30:00,31.5,29.0,29.48,ESE,113,2.0,2.0,90,0.00,,,0.00,WUHU216HW,2013-03-25 10:30:00,
2013-03-25 06:35:00,31.5,29.3,29.48,ESE,113,1.6,2.0,91,0.00,,,0.00,WUHU216HW,2013-03-25 10:35:00,
2013-03-25 06:40:00,31.5,29.0,29.48,South,180,0.9,1.8,90,0.00,,,0.00,WUHU216HW,2013-03-25 10:40:00,
2013-03-25 06:45:00,31.5,29.0,29.48,South,180,1.3,1.8,90,0.00,,,0.00,WUHU216HW,2013-03-25 10:45:00,
2013-03-25 06:50:00,31.5,29.0,29.48,South,180,0.4,1.8,90,0.00,,,0.00,WUHU216HW,2013-03-25 10:50:00,
2013-03-25 06:55:00,31.7,29.2,29.48,South,180,0.0,1.3,90,0.00,,,0.00,WUHU216HW,2013-03-25 10:55:00,
2013-03-25 07:00:00,31.7,29.2,29.48,South,180,0.9,1.3,90,0.00,,,0.00,WUHU216HW,2013-03-25 11:00:00,
2013-03-25 07:05:00,31.7,29.2,29.48,South,180,0.2,1.1,90,0.00,,,0.00,WUHU216HW,2013-03-25 11:05:00,
2013-03-25 07:10:00,31.7,29.2,29.48,South,180,0.0,1.8,90,0.00,,,0.00,WUHU216HW,2013-03-25 11:10:00,
2013-03-25 07:15:00,31.7,29.2,29.48,South,180,0.7,1.8,90,0.00,,,0.00,WUHU216HW,2013-03-25 11:15:00,
2013-03-25 07:20:00,31.9,29.3,29.48,South,180,0.9,1.1,90,0.00,,,0.00,WUHU216HW,2013-03-25 11:20:00,
2013-03-25 07:25:00,31.9,29.3,29.48,South,180,1.3,1.8,90,0.00,,,0.00,WUHU216HW,2013-03-25 11:25:00,
2013-03-25 07:30:00,31.9,29.3,29.49,South,180,0.7,1.8,90,0.00,,,0.00,WUHU216HW,2013-03-25 11:30:00,
2013-03-25 07:35:00,31.9,29.3,29.49,South,180,1.1,1.3,90,0.00,,,0.00,WUHU216HW,2013-03-25 11:35:00,
2013-03-25 07:40:00,32.0,29.5,29.49,South,180,0.4,1.1,90,0.00,,,0.00,WUHU216HW,2013-03-25 11:40:00,
2013-03-25 07:45:00,31.9,29.3,29.49,South,180,0.7,1.1,90,0.00,,,0.00,WUHU216HW,2013-03-25 11:45:00,
2013-03-25 07:50:00,32.0,29.5,29.49,South,180,0.9,1.6,90,0.00,,,0.00,WUHU216HW,2013-03-25 11:50:00,
2013-03-25 07:55:00,32.0,29.5,29.49,South,180,0.2,1.6,90,0.00,,,0.00,WUHU216HW,2013-03-25 11:55:00,
2013-03-25 08:00:00,32.0,29.5,29.49,South,180,0.2,1.6,90,0.00,,,0.00,WUHU216HW,2013-03-25 12:00:00,
2013-03-25 08:05:00,32.0,29.5,29.49,South,180,0.2,1.1,90,0.00,,,0.00,WUHU216HW,2013-03-25 12:05:00,
2013-03-25 08:10:00,32.0,29.5,29.49,South,180,0.4,1.1,90,0.00,,,0.00,WUHU216HW,2013-03-25 12:10:00,
2013-03-25 08:15:00,32.0,29.8,29.49,South,180,1.1,1.3,91,0.00,,,0.00,WUHU216HW,2013-03-25 12:15:00,
2013-03-25 08:20:00,32.0,29.5,29.49,South,180,1.1,1.3,90,0.00,,,0.00,WUHU216HW,2013-03-25 12:20:00,
2013-03-25 08:25:00,32.0,29.5,29.49,South,180,0.4,1.1,90,0.00,,,0.00,WUHU216HW,2013-03-25 12:25:00,
2013-03-25 08:30:00,32.0,29.8,29.49,South,180,0.2,1.1,91,0.00,,,0.00,WUHU216HW,2013-03-25 12:30:00,
2013-03-25 08:35:00,32.0,29.8,29.49,South,180,0.2,1.1,91,0.00,,,0.00,WUHU216HW,2013-03-25 12:35:00,
2013-03-25 08:40:00,32.2,30.0,29.49,South,180,0.2,0.9,91,0.00,,,0.00,WUHU216HW,2013-03-25 12:40:00,
2013-03-25 08:45:00,32.2,29.7,29.49,South,180,0.0,0.9,90,0.00,,,0.00,WUHU216HW,2013-03-25 12:45:00,
2013-03-25 08:50:00,32.2,29.7,29.49,South,180,0.0,1.1,90,0.00,,,0.00,WUHU216HW,2013-03-25 12:50:00,
2013-03-25 08:55:00,32.2,29.7,29.49,South,180,0.9,1.1,90,0.00,,,0.00,WUHU216HW,2013-03-25 12:55:00,
2013-03-25 09:00:00,32.2,29.7,29.49,South,180,1.3,1.3,90,0.00,,,0.00,WUHU216HW,2013-03-25 13:00:00,
2013-03-25 09:05:00,32.2,29.7,29.49,South,180,0.0,1.3,90,0.00,,,0.00,WUHU216HW,2013-03-25 13:05:00,
2013-03-25 09:10:00,32.4,29.9,29.49,South,180,0.4,2.2,90,0.00,,,0.00,WUHU216HW,2013-03-25 13:10:00,
2013-03-25 09:15:00,32.4,29.9,29.49,South,180,0.0,2.2,90,0.00,,,0.00,WUHU216HW,2013-03-25 13:15:00,
2013-03-25 09:20:00,32.4,29.9,29.49,South,180,1.8,1.8,90,0.00,,,0.00,WUHU216HW,2013-03-25 13:20:00,
2013-03-25 09:25:00,32.4,29.9,29.49,South,180,0.2,1.8,90,0.00,,,0.00,WUHU216HW,2013-03-25 13:25:00,
2013-03-25 09:30:00,32.6,30.0,29.49,South,180,0.9,1.3,90,0.00,,,0.00,WUHU216HW,2013-03-25 13:30:00,
2013-03-25 09:35:00,32.6,30.0,29.49,South,180,0.2,1.1,90,0.00,,,0.00,WUHU216HW,2013-03-25 13:35:00,
2013-03-25 09:40:00,32.6,30.0,29.49,South,180,0.0,1.1,90,0.00,,,0.00,WUHU216HW,2013-03-25 13:40:00,
2013-03-25 09:45:00,32.8,30.2,29.49,South,180,0.4,0.4,90,0.00,,,0.00,WUHU216HW,2013-03-25 13:45:00,
2013-03-25 09:50:00,32.8,30.2,29.49,South,180,0.0,1.1,90,0.00,,,0.00,WUHU216HW,2013-03-25 13:50:00,
2013-03-25 09:55:00,32.9,30.3,29.49,South,180,0.2,1.1,90,0.00,,,0.00,WUHU216HW,2013-03-25 13:55:00,
2013-03-25 10:00:00,32.9,30.3,29.49,South,180,0.2,0.4,90,0.00,,,0.00,WUHU216HW,2013-03-25 14:00:00,
2013-03-25 10:05:00,33.1,30.5,29.50,South,180,0.0,0.7,90,0.00,,,0.00,WUHU216HW,2013-03-25 14:05:00,
2013-03-25 10:10:00,33.3,30.7,29.50,South,180,0.7,0.7,90,0.00,,,0.00,WUHU216HW,2013-03-25 14:10:00,
2013-03-25 10:15:00,33.3,30.7,29.49,South,180,0.9,1.6,90,0.00,,,0.00,WUHU216HW,2013-03-25 14:15:00,
2013-03-25 10:20:00,33.5,30.8,29.50,South,180,0.4,1.6,90,0.00,,,0.00,WUHU216HW,2013-03-25 14:20:00,
2013-03-25 10:25:00,33.8,31.1,29.50,South,180,0.0,0.9,90,0.00,,,0.00,WUHU216HW,2013-03-25 14:25:00,
2013-03-25 10:30:00,34.2,31.2,29.50,South,180,0.2,0.9,89,0.00,,,0.00,WUHU216HW,2013-03-25 14:30:00,
2013-03-25 10:35:00,34.2,31.2,29.50,South,180,0.2,0.4,89,0.00,,,0.00,WUHU216HW,2013-03-25 14:35:00,
2013-03-25 10:40:00,34.6,31.6,29.50,South,180,0.0,0.2,89,0.00,,,0.00,WUHU216HW,2013-03-25 14:40:00,
2013-03-25 10:45:00,34.7,31.8,29.50,South,180,0.0,0.0,89,0.00,,,0.00,WUHU216HW,2013-03-25 14:45:00,
2013-03-25 10:50:00,34.9,32.0,29.50,South,180,0.0,0.2,89,0.00,,,0.00,WUHU216HW,2013-03-25 14:50:00,
2013-03-25 10:55:00,35.3,32.1,29.50,South,180,0.0,0.2,88,0.00,,,0.00,WUHU216HW,2013-03-25 14:55:00,
2013-03-25 11:00:00,35.3,32.1,29.50,South,180,0.0,0.9,88,0.00,,,0.00,WUHU216HW,2013-03-25 15:00:00,
2013-03-25 11:05:00,35.5,32.2,29.50,South,180,0.0,0.9,88,0.00,,,0.00,WUHU216HW,2013-03-25 15:05:00,
2013-03-25 11:10:00,35.5,32.2,29.50,South,180,0.0,0.9,88,0.00,,,0.00,WUHU216HW,2013-03-25 15:10:00,
2013-03-25 11:15:00,36.0,32.4,29.50,South,180,0.0,0.2,87,0.00,,,0.00,WUHU216HW,2013-03-25 15:15:00,
2013-03-25 11:20:00,36.2,32.6,29.51,South,180,0.0,0.4,87,0.00,,,0.00,WUHU216HW,2013-03-25 15:20:00,
2013-03-25 11:25:00,36.0,32.4,29.51,South,180,0.2,0.4,87,0.00,,,0.00,WUHU216HW,2013-03-25 15:25:00,
2013-03-25 11:30:00,36.0,32.4,29.51,South,180,0.4,0.4,87,0.00,,,0.00,WUHU216HW,2013-03-25 15:30:00,
2013-03-25 11:35:00,36.0,32.4,29.51,South,180,0.0,0.4,87,0.00,,,0.00,WUHU216HW,2013-03-25 15:35:00,
2013-03-25 11:40:00,36.0,32.4,29.51,South,180,0.0,0.4,87,0.00,,,0.00,WUHU216HW,2013-03-25 15:40:00,
2013-03-25 11:45:00,36.4,32.8,29.51,South,180,0.4,0.4,87,0.00,,,0.00,WUHU216HW,2013-03-25 15:45:00,
2013-03-25 11:51:00,36.4,32.8,29.52,South,180,0.0,0.4,87,0.00,,,0.00,WUHU216HW,2013-03-25 15:51:00,
2013-03-25 11:55:00,36.5,32.9,29.52,South,180,0.0,0.0,87,0.00,,,0.00,WUHU216HW,2013-03-25 15:55:00,
2013-03-25 12:01:00,36.5,32.7,29.52,South,180,0.2,0.2,86,0.00,,,0.00,WUHU216HW,2013-03-25 16:01:00,
2013-03-25 12:06:00,36.7,32.9,29.52,South,180,0.2,0.2,86,0.00,,,0.00,WUHU216HW,2013-03-25 16:06:00,
2013-03-25 12:11:00,36.7,32.9,29.52,West,270,0.0,0.4,86,0.00,,,0.00,WUHU216HW,2013-03-25 16:11:00,
2013-03-25 12:16:00,36.5,32.7,29.52,SW,225,0.0,1.6,86,0.00,,,0.00,WUHU216HW,2013-03-25 16:16:00,
2013-03-25 12:21:00,36.9,33.0,29.52,SW,225,0.0,1.6,86,0.00,,,0.00,WUHU216HW,2013-03-25 16:21:00,
2013-03-25 12:26:00,37.1,33.2,29.52,WSW,248,1.1,1.1,86,0.00,,,0.00,WUHU216HW,2013-03-25 16:26:00,
2013-03-25 12:31:00,37.4,33.3,29.52,SW,225,1.8,1.8,85,0.00,,,0.00,WUHU216HW,2013-03-25 16:31:00,
2013-03-25 12:36:00,37.6,33.5,29.52,SW,225,0.4,2.0,85,0.00,,,0.00,WUHU216HW,2013-03-25 16:36:00,
2013-03-25 12:41:00,37.6,33.2,29.52,WSW,248,0.7,2.0,84,0.00,,,0.00,WUHU216HW,2013-03-25 16:41:00,
2013-03-25 12:46:00,37.6,33.2,29.53,SW,225,0.4,1.1,84,0.00,,,0.00,WUHU216HW,2013-03-25 16:46:00,
2013-03-25 12:51:00,37.4,33.0,29.53,West,270,0.7,1.1,84,0.00,,,0.00,WUHU216HW,2013-03-25 16:51:00,
2013-03-25 12:56:00,37.8,33.4,29.53,NW,315,1.1,1.1,84,0.01,,,0.01,WUHU216HW,2013-03-25 16:56:00,
2013-03-25 13:01:00,37.8,33.4,29.53,WNW,293,0.4,1.8,84,0.02,,,0.02,WUHU216HW,2013-03-25 17:01:00,
2013-03-25 13:06:00,37.6,33.0,29.53,SW,225,1.1,1.8,83,0.02,,,0.02,WUHU216HW,2013-03-25 17:06:00,
2013-03-25 13:11:00,37.8,33.1,29.53,SW,225,2.2,2.2,83,0.02,,,0.02,WUHU216HW,2013-03-25 17:11:00,
2013-03-25 13:16:00,38.0,33.3,29.53,SSW,203,1.3,3.4,83,0.04,,,0.03,WUHU216HW,2013-03-25 17:16:00,
2013-03-25 13:21:00,37.8,33.1,29.53,SW,225,0.4,3.4,83,0.04,,,0.04,WUHU216HW,2013-03-25 17:21:00,
2013-03-25 13:26:00,38.0,32.9,29.53,WSW,248,0.7,1.1,82,0.05,,,0.05,WUHU216HW,2013-03-25 17:26:00,
2013-03-25 13:31:00,37.8,33.1,29.53,WNW,293,0.9,1.8,83,0.06,,,0.06,WUHU216HW,2013-03-25 17:31:00,
2013-03-25 13:36:00,37.8,32.8,29.54,WSW,248,0.2,1.8,82,0.07,,,0.07,WUHU216HW,2013-03-25 17:36:00,
2013-03-25 13:41:00,38.0,33.3,29.54,West,270,0.7,1.8,83,0.08,,,0.08,WUHU216HW,2013-03-25 17:41:00,
2013-03-25 13:46:00,38.2,33.5,29.54,SW,225,0.0,1.8,83,0.09,,,0.09,WUHU216HW,2013-03-25 17:46:00,
2013-03-25 13:51:00,38.3,33.3,29.54,West,270,0.4,1.8,82,0.10,,,0.10,WUHU216HW,2013-03-25 17:51:00,
2013-03-25 13:56:00,38.3,33.3,29.54,West,270,0.4,1.8,82,0.11,,,0.11,WUHU216HW,2013-03-25 17:56:00,
2013-03-25 14:01:00,38.3,33.3,29.54,WSW,248,1.8,1.8,82,0.10,,,0.12,WUHU216HW,2013-03-25 18:01:00,
2013-03-25 14:06:00,38.2,33.1,29.54,NW,315,0.0,1.8,82,0.12,,,0.13,WUHU216HW,2013-03-25 18:06:00,
2013-03-25 14:11:00,38.3,33.3,29.54,NW,315,0.4,0.9,82,0.11,,,0.14,WUHU216HW,2013-03-25 18:11:00,
2013-03-25 14:16:00,38.5,33.5,29.54,WSW,248,0.0,1.1,82,0.12,,,0.16,WUHU216HW,2013-03-25 18:16:00,
2013-03-25 14:21:00,38.5,33.5,29.54,SW,225,0.9,1.1,82,0.12,,,0.17,WUHU216HW,2013-03-25 18:21:00,
2013-03-25 14:26:00,38.5,33.5,29.54,SW,225,0.4,1.3,82,0.12,,,0.18,WUHU216HW,2013-03-25 18:26:00,
2013-03-25 14:31:00,38.5,33.5,29.54,WSW,248,1.1,2.7,82,0.12,,,0.18,WUHU216HW,2013-03-25 18:31:00,
2013-03-25 14:37:00,38.3,33.3,29.54,NNW,338,0.2,2.7,82,0.12,,,0.20,WUHU216HW,2013-03-25 18:37:00,
2013-03-25 14:42:00,38.2,33.1,29.54,West,270,0.0,1.8,82,0.11,,,0.20,WUHU216HW,2013-03-25 18:42:00,
2013-03-25 14:47:00,38.0,32.9,29.54,West,270,0.4,1.3,82,0.11,,,0.21,WUHU216HW,2013-03-25 18:47:00,
2013-03-25 14:52:00,38.3,33.3,29.54,WSW,248,0.9,1.8,82,0.11,,,0.23,WUHU216HW,2013-03-25 18:52:00,
2013-03-25 14:57:00,38.3,33.3,29.54,SW,225,1.8,1.8,82,0.11,,,0.23,WUHU216HW,2013-03-25 18:57:00,
2013-03-25 15:02:00,38.5,33.5,29.54,West,270,0.2,2.9,82,0.11,,,0.25,WUHU216HW,2013-03-25 19:02:00,
2013-03-25 15:07:00,38.5,33.2,29.54,SSW,203,0.4,2.9,81,0.10,,,0.25,WUHU216HW,2013-03-25 19:07:00,
2013-03-25 15:12:00,38.3,33.3,29.54,NW,315,1.3,1.3,82,0.09,,,0.25,WUHU216HW,2013-03-25 19:12:00,
2013-03-25 15:17:00,38.7,33.7,29.54,West,270,0.2,1.3,82,0.10,,,0.27,WUHU216HW,2013-03-25 19:17:00,
2013-03-25 15:22:00,38.7,33.4,29.54,West,270,0.7,0.9,81,0.10,,,0.27,WUHU216HW,2013-03-25 19:22:00,
2013-03-25 15:27:00,38.5,33.2,29.54,West,270,2.2,2.2,81,0.10,,,0.29,WUHU216HW,2013-03-25 19:27:00,
2013-03-25 15:32:00,38.5,33.2,29.55,West,270,0.9,2.2,81,0.08,,,0.29,WUHU216HW,2013-03-25 19:32:00,
2013-03-25 15:37:00,38.9,33.8,29.55,West,270,1.8,1.8,82,0.09,,,0.30,WUHU216HW,2013-03-25 19:37:00,
2013-03-25 15:42:00,38.9,33.3,29.55,WSW,248,0.4,1.8,80,0.09,,,0.30,WUHU216HW,2013-03-25 19:42:00,
2013-03-25 15:47:00,38.5,33.2,29.55,SSW,203,0.9,2.9,81,0.08,,,0.30,WUHU216HW,2013-03-25 19:47:00,
2013-03-25 15:52:00,38.3,33.0,29.55,NE,45,0.7,2.9,81,0.08,,,0.32,WUHU216HW,2013-03-25 19:52:00,
2013-03-25 15:57:00,38.0,32.9,29.55,WSW,248,0.0,1.1,82,0.08,,,0.32,WUHU216HW,2013-03-25 19:57:00,
2013-03-25 16:02:00,38.0,32.9,29.55,West,270,0.9,2.5,82,0.08,,,0.32,WUHU216HW,2013-03-25 20:02:00,
2013-03-25 16:07:00,38.2,33.1,29.56,SW,225,0.4,2.5,82,0.07,,,0.32,WUHU216HW,2013-03-25 20:07:00,
2013-03-25 16:12:00,38.2,33.1,29.56,WSW,248,0.7,1.1,82,0.07,,,0.34,WUHU216HW,2013-03-25 20:12:00,
2013-03-25 16:17:00,38.5,33.5,29.56,SW,225,0.4,1.1,82,0.08,,,0.35,WUHU216HW,2013-03-25 20:17:00,
2013-03-25 16:22:00,38.3,33.3,29.56,SW,225,0.2,1.8,82,0.07,,,0.35,WUHU216HW,2013-03-25 20:22:00,
2013-03-25 16:27:00,38.3,33.3,29.56,West,270,0.9,1.8,82,0.06,,,0.35,WUHU216HW,2013-03-25 20:27:00,
2013-03-25 16:32:00,38.0,32.9,29.56,WNW,293,0.2,0.9,82,0.06,,,0.36,WUHU216HW,2013-03-25 20:32:00,
2013-03-25 16:37:00,37.6,32.6,29.57,WSW,248,1.8,1.8,82,0.07,,,0.37,WUHU216HW,2013-03-25 20:37:00,
2013-03-25 16:42:00,37.3,32.6,29.57,NW,315,0.9,1.8,83,0.06,,,0.37,WUHU216HW,2013-03-25 20:42:00,
2013-03-25 16:47:00,37.1,32.7,29.57,WSW,248,0.2,1.8,84,0.06,,,0.37,WUHU216HW,2013-03-25 20:47:00,
2013-03-25 16:52:00,37.1,32.7,29.57,West,270,0.4,1.1,84,0.06,,,0.38,WUHU216HW,2013-03-25 20:52:00,
2013-03-25 16:57:00,37.1,32.7,29.57,West,270,0.7,1.1,84,0.05,,,0.38,WUHU216HW,2013-03-25 20:57:00,
2013-03-25 17:02:00,37.1,32.7,29.58,WSW,248,1.1,1.1,84,0.06,,,0.39,WUHU216HW,2013-03-25 21:02:00,
2013-03-25 17:07:00,37.3,32.9,29.58,West,270,1.1,1.1,84,0.06,,,0.39,WUHU216HW,2013-03-25 21:07:00,
2013-03-25 17:12:00,37.3,32.9,29.58,West,270,0.2,1.1,84,0.04,,,0.39,WUHU216HW,2013-03-25 21:12:00,
2013-03-25 17:17:00,37.1,32.7,29.58,West,270,0.4,1.1,84,0.05,,,0.40,WUHU216HW,2013-03-25 21:17:00,
2013-03-25 17:22:00,37.1,32.7,29.58,NW,315,0.0,1.1,84,0.05,,,0.40,WUHU216HW,2013-03-25 21:22:00,
2013-03-25 17:27:00,36.9,32.5,29.58,West,270,0.0,1.1,84,0.06,,,0.41,WUHU216HW,2013-03-25 21:27:00,
2013-03-25 17:32:00,36.7,32.3,29.59,WSW,248,0.0,1.1,84,0.05,,,0.41,WUHU216HW,2013-03-25 21:32:00,
2013-03-25 17:37:00,36.7,32.3,29.59,West,270,0.0,1.1,84,0.04,,,0.41,WUHU216HW,2013-03-25 21:37:00,
2013-03-25 17:42:00,36.7,32.3,29.59,NW,315,0.4,0.4,84,0.04,,,0.41,WUHU216HW,2013-03-25 21:42:00,
2013-03-25 17:47:00,36.4,32.2,29.59,WNW,293,0.4,0.4,85,0.04,,,0.41,WUHU216HW,2013-03-25 21:47:00,
2013-03-25 17:52:00,36.4,32.2,29.60,WNW,293,0.0,1.3,85,0.04,,,0.42,WUHU216HW,2013-03-25 21:52:00,
2013-03-25 17:57:00,36.2,32.0,29.60,West,270,0.4,1.3,85,0.04,,,0.42,WUHU216HW,2013-03-25 21:57:00,
2013-03-25 18:02:00,36.0,32.1,29.60,NNE,23,0.7,1.1,86,0.03,,,0.42,WUHU216HW,2013-03-25 22:02:00,
2013-03-25 18:07:00,35.8,32.0,29.60,West,270,0.9,0.9,86,0.04,,,0.43,WUHU216HW,2013-03-25 22:07:00,
2013-03-25 18:12:00,35.6,31.8,29.60,WNW,293,0.0,2.0,86,0.04,,,0.43,WUHU216HW,2013-03-25 22:12:00,
2013-03-25 18:17:00,35.6,31.8,29.61,West,270,0.4,2.0,86,0.03,,,0.43,WUHU216HW,2013-03-25 22:17:00,
2013-03-25 18:22:00,35.6,31.8,29.61,West,270,0.4,0.9,86,0.03,,,0.43,WUHU216HW,2013-03-25 22:22:00,
2013-03-25 18:27:00,35.6,31.8,29.62,West,270,0.0,0.4,86,0.02,,,0.43,WUHU216HW,2013-03-25 22:27:00,
2013-03-25 18:32:00,35.6,31.8,29.62,WNW,293,0.0,0.4,86,0.03,,,0.44,WUHU216HW,2013-03-25 22:32:00,
2013-03-25 18:37:00,35.6,31.8,29.62,West,270,0.0,0.4,86,0.03,,,0.44,WUHU216HW,2013-03-25 22:37:00,
2013-03-25 18:42:00,35.6,31.8,29.63,WSW,248,0.2,0.7,86,0.03,,,0.44,WUHU216HW,2013-03-25 22:42:00,
2013-03-25 18:47:00,35.5,31.6,29.63,West,270,0.0,1.8,86,0.04,,,0.45,WUHU216HW,2013-03-25 22:47:00,
2013-03-25 18:52:00,35.5,31.6,29.63,SW,225,0.4,1.8,86,0.03,,,0.45,WUHU216HW,2013-03-25 22:52:00,
2013-03-25 18:57:00,35.3,31.4,29.63,WNW,293,0.0,0.4,86,0.03,,,0.45,WUHU216HW,2013-03-25 22:57:00,
2013-03-25 19:02:00,35.3,31.4,29.64,WNW,293,0.4,0.4,86,0.03,,,0.45,WUHU216HW,2013-03-25 23:02:00,
2013-03-25 19:07:00,35.3,31.4,29.64,WNW,293,0.0,1.3,86,0.02,,,0.45,WUHU216HW,2013-03-25 23:07:00,
2013-03-25 19:12:00,35.1,31.2,29.64,WNW,293,0.0,1.3,86,0.02,,,0.45,WUHU216HW,2013-03-25 23:12:00,
2013-03-25 19:17:00,35.1,31.2,29.65,West,270,0.0,0.7,86,0.03,,,0.46,WUHU216HW,2013-03-25 23:17:00,
2013-03-25 19:22:00,35.1,31.5,29.65,WNW,293,0.0,1.1,87,0.03,,,0.46,WUHU216HW,2013-03-25 23:22:00,
2013-03-25 19:27:00,34.9,31.3,29.65,WSW,248,0.0,1.1,87,0.03,,,0.46,WUHU216HW,2013-03-25 23:27:00,
2013-03-25 19:32:00,34.9,31.7,29.66,WNW,293,0.0,1.1,88,0.02,,,0.46,WUHU216HW,2013-03-25 23:32:00,
2013-03-25 19:37:00,34.9,31.7,29.66,West,270,0.0,1.3,88,0.02,,,0.46,WUHU216HW,2013-03-25 23:37:00,
2013-03-25 19:42:00,34.9,31.7,29.66,NW,315,0.2,1.3,88,0.02,,,0.46,WUHU216HW,2013-03-25 23:42:00,
2013-03-25 19:48:00,34.7,31.5,29.66,West,270,0.4,1.1,88,0.02,,,0.47,WUHU216HW,2013-03-25 23:48:00,
2013-03-25 19:53:00,34.6,31.3,29.66,WNW,293,0.0,1.1,88,0.02,,,0.47,WUHU216HW,2013-03-25 23:53:00,
2013-03-25 19:58:00,34.6,31.3,29.67,WNW,293,0.4,0.4,88,0.02,,,0.47,WUHU216HW,2013-03-25 23:58:00,
2013-03-25 20:03:00,34.6,31.3,29.67,SW,225,0.4,1.3,88,0.02,,,0.47,WUHU216HW,2013-03-26 00:03:00,
2013-03-25 20:08:00,34.4,31.2,29.67,WNW,293,0.4,1.3,88,0.02,,,0.47,WUHU216HW,2013-03-26 00:08:00,
2013-03-25 20:13:00,34.4,31.2,29.68,WSW,248,0.4,0.4,88,0.02,,,0.47,WUHU216HW,2013-03-26 00:13:00,
2013-03-25 20:18:00,34.4,31.4,29.68,West,270,0.0,0.7,89,0.01,,,0.47,WUHU216HW,2013-03-26 00:18:00,
2013-03-25 20:23:00,34.2,31.0,29.68,NW,315,0.0,0.7,88,0.02,,,0.48,WUHU216HW,2013-03-26 00:23:00,
2013-03-25 20:28:00,34.2,31.0,29.68,WNW,293,0.0,0.4,88,0.02,,,0.48,WUHU216HW,2013-03-26 00:28:00,
2013-03-25 20:33:00,34.2,31.0,29.68,WNW,293,0.4,0.4,88,0.02,,,0.48,WUHU216HW,2013-03-26 00:33:00,
2013-03-25 20:38:00,34.2,31.2,29.68,West,270,0.0,1.1,89,0.02,,,0.48,WUHU216HW,2013-03-26 00:38:00,
2013-03-25 20:43:00,34.0,31.1,29.68,West,270,0.4,1.1,89,0.02,,,0.48,WUHU216HW,2013-03-26 00:43:00,
2013-03-25 20:48:00,34.0,31.1,29.69,North,0,0.0,0.4,89,0.01,,,0.48,WUHU216HW,2013-03-26 00:48:00,
2013-03-25 20:53:00,34.0,31.1,29.69,SSW,203,0.4,0.7,89,0.02,,,0.49,WUHU216HW,2013-03-26 00:53:00,
2013-03-25 20:58:00,34.0,31.1,29.69,NW,315,0.0,0.7,89,0.02,,,0.49,WUHU216HW,2013-03-26 00:58:00,
2013-03-25 21:03:00,34.0,31.1,29.69,West,270,0.4,0.4,89,0.02,,,0.49,WUHU216HW,2013-03-26 01:03:00,
2013-03-25 21:08:00,34.0,31.1,29.70,WNW,293,0.0,0.9,89,0.02,,,0.49,WUHU216HW,2013-03-26 01:08:00,
2013-03-25 21:13:00,33.8,30.9,29.70,WNW,293,0.2,0.9,89,0.02,,,0.49,WUHU216HW,2013-03-26 01:13:00,
2013-03-25 21:18:00,33.8,30.9,29.70,WNW,293,0.2,1.1,89,0.02,,,0.49,WUHU216HW,2013-03-26 01:18:00,
2013-03-25 21:23:00,33.7,30.7,29.71,West,270,0.0,1.1,89,0.01,,,0.49,WUHU216HW,2013-03-26 01:23:00,
2013-03-25 21:28:00,33.5,30.5,29.70,WNW,293,0.0,0.7,89,0.01,,,0.49,WUHU216HW,2013-03-26 01:28:00,
2013-03-25 21:33:00,33.5,30.5,29.71,WNW,293,0.4,0.4,89,0.01,,,0.49,WUHU216HW,2013-03-26 01:33:00,
2013-03-25 21:38:00,33.5,30.5,29.71,NNW,338,0.4,0.4,89,0.01,,,0.49,WUHU216HW,2013-03-26 01:38:00,
2013-03-25 21:43:00,33.5,30.5,29.71,West,270,0.0,0.4,89,0.01,,,0.49,WUHU216HW,2013-03-26 01:43:00,
2013-03-25 21:48:00,33.5,30.5,29.71,WNW,293,0.0,0.4,89,0.00,,,0.49,WUHU216HW,2013-03-26 01:48:00,
2013-03-25 21:53:00,33.5,30.5,29.71,West,270,0.0,1.8,89,0.00,,,0.49,WUHU216HW,2013-03-26 01:53:00,
2013-03-25 21:58:00,33.5,30.5,29.71,WNW,293,0.0,1.8,89,0.00,,,0.49,WUHU216HW,2013-03-26 01:58:00,
2013-03-25 22:03:00,33.5,30.5,29.71,WNW,293,0.0,0.2,89,0.00,,,0.49,WUHU216HW,2013-03-26 02:03:00,
2013-03-25 22:08:00,33.3,30.7,29.72,WNW,293,0.7,0.7,90,0.00,,,0.49,WUHU216HW,2013-03-26 02:08:00,
2013-03-25 22:13:00,33.3,30.7,29.72,NW,315,0.9,0.9,90,0.00,,,0.49,WUHU216HW,2013-03-26 02:13:00,
2013-03-25 22:18:00,33.3,30.7,29.72,NW,315,0.0,1.1,90,0.00,,,0.49,WUHU216HW,2013-03-26 02:18:00,
2013-03-25 22:23:00,33.3,30.7,29.72,NW,315,0.7,1.1,90,0.00,,,0.49,WUHU216HW,2013-03-26 02:23:00,
2013-03-25 22:28:00,33.3,30.7,29.73,West,270,0.2,1.1,90,0.00,,,0.49,WUHU216HW,2013-03-26 02:28:00,
2013-03-25 22:33:00,33.3,31.0,29.73,NNW,338,0.0,0.7,91,0.00,,,0.49,WUHU216HW,2013-03-26 02:33:00,
2013-03-25 22:38:00,33.3,31.0,29.73,NW,315,0.0,0.4,91,0.00,,,0.49,WUHU216HW,2013-03-26 02:38:00,
2013-03-25 22:43:00,33.3,31.0,29.73,NW,315,0.0,0.9,91,0.00,,,0.49,WUHU216HW,2013-03-26 02:43:00,
2013-03-25 22:48:00,33.3,31.0,29.73,ESE,113,0.4,0.9,91,0.00,,,0.49,WUHU216HW,2013-03-26 02:48:00,
2013-03-25 22:53:00,33.3,31.0,29.73,NE,45,0.0,0.4,91,0.00,,,0.49,WUHU216HW,2013-03-26 02:53:00,
2013-03-25 22:58:00,33.3,31.0,29.73,ENE,68,0.0,0.4,91,0.00,,,0.49,WUHU216HW,2013-03-26 02:58:00,
2013-03-25 23:03:00,33.3,31.0,29.74,NW,315,0.0,1.1,91,0.00,,,0.49,WUHU216HW,2013-03-26 03:03:00,
2013-03-25 23:08:00,33.3,31.0,29.74,West,270,0.0,1.1,91,0.00,,,0.49,WUHU216HW,2013-03-26 03:08:00,
2013-03-25 23:13:00,33.5,31.1,29.74,ESE,113,0.2,0.9,91,0.01,,,0.50,WUHU216HW,2013-03-26 03:13:00,
2013-03-25 23:18:00,33.5,31.1,29.74,ENE,68,0.9,0.9,91,0.01,,,0.50,WUHU216HW,2013-03-26 03:18:00,
2013-03-25 23:23:00,33.5,31.1,29.75,NE,45,0.0,0.9,91,0.01,,,0.50,WUHU216HW,2013-03-26 03:23:00,
2013-03-25 23:28:00,33.5,31.1,29.75,NNW,338,0.9,0.9,91,0.01,,,0.50,WUHU216HW,2013-03-26 03:28:00,
2013-03-25 23:33:00,33.5,31.1,29.75,NW,315,0.0,0.9,91,0.01,,,0.50,WUHU216HW,2013-03-26 03:33:00,
2013-03-25 23:38:00,33.5,31.1,29.75,SSE,158,0.4,0.4,91,0.01,,,0.50,WUHU216HW,2013-03-26 03:38:00,
2013-03-25 23:43:00,33.5,31.1,29.75,NW,315,0.4,0.4,91,0.01,,,0.50,WUHU216HW,2013-03-26 03:43:00,
2013-03-25 23:48:00,33.5,31.1,29.76,West,270,0.7,0.7,91,0.01,,,0.50,WUHU216HW,2013-03-26 03:48:00,
2013-03-25 23:53:00,33.5,31.1,29.76,NNE,23,0.0,0.7,91,0.01,,,0.50,WUHU216HW,2013-03-26 03:53:00,
2013-03-25 23:58:00,33.5,31.1,29.76,North,0,0.0,0.4,91,0.01,,,0.50,WUHU216HW,2013-03-26 03:58:00,